Volver al catálogo

RADUGA 6

ActivoComunicacionesGEO
NORAD 11708·PAYLOAD·🇷🇺 Russia

Lanzado Feb 20, 1980 desde Baikonur Cosmodrome

Loading…

TLE

ActualizadoSource: Space-Track

Época: Sep 14, 2026, 05:26 UTC

1 11708U 80016A   26257.22697743  .00000132  00000-0  00000-0 0  9990
2 11708   5.5026 285.7805 0002901 319.7185 231.1827  1.00263393123050

Sigue RADUGA 6 en tiempo real con AllMySat

Download on the App Store